Weather History for Tacoma, WA

Change the Weather History Date:

Thursday, January 5, 2012

  Actual Average Record
Temperature  
Mean Temperature 41 °F -  
Max Temperature 48 °F 44 °F 55 °F (1990)
Min Temperature 32 °F 32 °F 10 °F (1979)
Degree Days  
Heating Degree Days 24    
Moisture  
Dew Point 41 °F    
Average Humidity 90    
Maximum Humidity 100    
Minimum Humidity 76    
Precipitation  
Precipitation 0.15 in - - ()
Sea Level Pressure  
Sea Level Pressure 30.33 in    
Wind  
Wind Speed 12 mph (SSW)    
Max Wind Speed 28 mph    
Max Gust Speed 33 mph    
Visibility 10 miles    
Events Rain    
Averages and records for this station are not official NWS values.
T = Trace of Precipitation, MM = Missing Value Source: NWS Daily Summary

Daily Weather History Graph

Daily Weather History Graph

Search for Another Location

Airport:

Trip Planner

Search our weather history database for the weather conditions in past years. The results will help you decide how hot, cold, wet, or windy it might be!

Date:

Astronomy

Jan. 05, 2012 Rise Set
Actual Time 7:55 AM PST 4:34 PM PST
Civil Twilight 7:20 AM PST 5:09 PM PST
Nautical Twilight 6:42 AM PST 5:48 PM PST
Astronomical Twilight 6:05 AM PST 6:25 PM PST
Moon 1:41 PM PST (1/5) 4:46 AM PST (1/5)
Length of Visible Light 9h 49m
Length of Day
8h 38m
Waxing Gibbous, 88% of the Moon is Illuminated
Jan 5
Waxing Gibbous
Jan 8
Full
Jan 16
Last Quarter
Jan 22
New
Jan 30
First Quarter

Hourly Weather History & Observations

Time (PST) Temp. Windchill Dew Point Humidity Pressure Visibility Wind Dir Wind Speed Gust Speed Precip Events Conditions
12:00 AM 48.2 °F - 44.6 °F 87% 30.21 in 10.0 mi SSW 10.4 mph - N/A Rain Light Rain
12:15 AM 46.4 °F 40.4 °F 44.6 °F 93% 30.20 in 10.0 mi South 13.8 mph - N/A   Overcast
12:37 AM 46.4 °F 40.7 °F 42.8 °F 87% 30.21 in 10.0 mi SSW 12.7 mph 21.9 mph N/A Rain Light Rain
12:47 AM 46.4 °F 41.9 °F 44.6 °F 93% 30.22 in 9.0 mi WSW 9.2 mph - N/A Rain Light Rain
12:54 AM 46.4 °F 41.5 °F 44.6 °F 93% 30.22 in 7.0 mi WSW 10.4 mph - N/A Rain Light Rain
12:55 AM 46.2 °F 40.8 °F 45.0 °F 95% 30.22 in 6.0 mi WSW 11.5 mph - 0.02 in Rain Light Rain
1:07 AM 46.4 °F 40.4 °F 44.6 °F 93% 30.22 in 5.0 mi SW 13.8 mph - N/A Rain Light Rain
1:23 AM 46.4 °F 40.1 °F 44.6 °F 93% 30.22 in 8.0 mi SSW 15.0 mph - N/A Rain Light Rain
1:25 AM 46.4 °F 40.1 °F 42.8 °F 87% 30.23 in 10.0 mi SSW 15.0 mph - N/A Rain Light Rain
1:34 AM 44.6 °F 37.8 °F 42.8 °F 93% 30.23 in 10.0 mi SSW 15.0 mph - N/A Rain Light Rain
1:38 AM 44.6 °F 38.1 °F 44.6 °F 100% 30.23 in 10.0 mi SSW 13.8 mph - N/A   Mostly Cloudy
1:55 AM 45.0 °F 40.1 °F 44.4 °F 98% 30.25 in 10.0 mi SSW 9.2 mph - 0.05 in   Scattered Clouds
2:55 AM 45.1 °F 39.5 °F 43.9 °F 95% 30.27 in 10.0 mi South 11.5 mph - N/A   Mostly Cloudy
2:56 AM 44.6 °F 38.8 °F 44.6 °F 100% 30.27 in 10.0 mi South 11.5 mph - N/A Rain Light Rain
3:07 AM 44.6 °F 35.1 °F 42.8 °F 93% 30.27 in 5.0 mi SW 27.6 mph 33.4 mph N/A Rain Light Rain
3:20 AM 44.6 °F 38.8 °F 42.8 °F 93% 30.27 in 10.0 mi SSW 11.5 mph - N/A   Mostly Cloudy
3:55 AM 43.2 °F 37.4 °F 42.4 °F 97% 30.28 in 10.0 mi South 10.4 mph - 0.02 in   Scattered Clouds
3:56 AM 42.8 °F 37.0 °F 42.8 °F 100% 30.28 in 10.0 mi South 10.4 mph - N/A Rain Light Rain
4:05 AM 44.6 °F 39.2 °F 42.8 °F 93% 30.29 in 9.0 mi WSW 10.4 mph 19.6 mph N/A Rain Light Rain
4:15 AM 44.6 °F 37.8 °F 42.8 °F 93% 30.29 in 7.0 mi SSW 15.0 mph 21.9 mph N/A Rain Light Rain
4:22 AM 42.8 °F 36.6 °F 41.0 °F 93% 30.29 in 10.0 mi SSW 11.5 mph 20.7 mph N/A   Mostly Cloudy
4:55 AM 43.0 °F 36.0 °F 41.2 °F 93% 30.28 in 10.0 mi South 13.8 mph - 0.02 in   Mostly Cloudy
5:55 AM 41.9 °F 35.9 °F 40.3 °F 94% 30.31 in 10.0 mi SSW 10.4 mph - N/A   Scattered Clouds
6:16 AM 42.8 °F 35.1 °F 41.0 °F 93% 30.32 in 10.0 mi SSW 16.1 mph 19.6 mph N/A Rain Light Rain
6:38 AM 41.0 °F 35.2 °F 37.4 °F 87% 30.32 in 8.0 mi SW 9.2 mph 23.0 mph N/A Rain Light Rain
6:52 AM 41.0 °F 33.9 °F 37.4 °F 87% 30.32 in 10.0 mi SW 12.7 mph - N/A   Overcast
6:55 AM 41.7 °F 35.2 °F 38.1 °F 87% 30.32 in 10.0 mi SW 11.5 mph - 0.01 in   Overcast
7:31 AM 41.0 °F 33.1 °F 39.2 °F 93% 30.33 in 10.0 mi South 15.0 mph - N/A Rain Light Rain
7:46 AM 42.8 °F 35.4 °F 39.2 °F 87% 30.34 in 10.0 mi SSW 15.0 mph 26.5 mph N/A   Overcast
7:55 AM 42.1 °F 35.2 °F 38.8 °F 88% 30.34 in 10.0 mi SSW 12.7 mph 18.4 mph 0.00 in   Overcast
8:55 AM 40.1 °F 33.2 °F 39.6 °F 98% 30.38 in 10.0 mi South 11.5 mph - N/A   Scattered Clouds
9:55 AM 43.3 °F 37.2 °F 40.5 °F 90% 30.40 in 10.0 mi South 11.5 mph - N/A   Partly Cloudy
10:55 AM 45.0 °F 39.7 °F 41.0 °F 86% 30.41 in 10.0 mi South 10.4 mph - N/A   Scattered Clouds
11:55 AM 46.9 °F - 40.3 °F 78% 30.39 in 10.0 mi South 15.0 mph - N/A   Scattered Clouds
12:24 PM 46.4 °F 41.5 °F 39.2 °F 76% 30.38 in 10.0 mi South 10.4 mph - N/A Rain Light Rain
12:33 PM 46.4 °F 41.9 °F 39.2 °F 76% 30.38 in 10.0 mi South 9.2 mph - N/A Rain Light Rain
12:55 PM 44.8 °F 39.9 °F 40.1 °F 84% 30.39 in 4.0 mi SW 9.2 mph - 0.03 in Rain Light Rain
1:13 PM 44.6 °F 40.2 °F 41.0 °F 87% 30.40 in 10.0 mi SSW 8.1 mph - N/A Rain Light Rain
1:14 PM 44.6 °F 40.2 °F 41.0 °F 87% 30.40 in 10.0 mi SSW 8.1 mph - N/A   Overcast
1:27 PM 44.6 °F 40.2 °F 41.0 °F 87% 30.39 in 10.0 mi SSW 8.1 mph - N/A   Mostly Cloudy
1:43 PM 44.6 °F 39.7 °F 41.0 °F 87% 30.39 in 10.0 mi South 9.2 mph - N/A   Mostly Cloudy
1:44 PM 44.6 °F 39.7 °F 41.0 °F 87% 30.38 in 10.0 mi South 9.2 mph - N/A   Mostly Cloudy
1:53 PM 44.6 °F 39.7 °F 41.0 °F 87% 30.39 in 10.0 mi South 9.2 mph - N/A Rain Light Rain
1:55 PM 44.8 °F 41.6 °F 41.0 °F 87% 30.39 in 10.0 mi SSW 5.8 mph - 0.00 in Rain Light Rain
2:20 PM 44.6 °F 39.2 °F 41.0 °F 87% 30.39 in 10.0 mi SSW 10.4 mph - N/A   Overcast
2:38 PM 46.4 °F 41.5 °F 41.0 °F 81% 30.38 in 10.0 mi South 10.4 mph - N/A   Mostly Cloudy
2:54 PM 44.6 °F 38.4 °F 41.0 °F 87% 30.38 in 10.0 mi South 12.7 mph - N/A   Mostly Cloudy
2:55 PM 45.0 °F 38.9 °F 41.5 °F 88% 30.38 in 10.0 mi South 12.7 mph - 0.00 in   Mostly Cloudy
3:11 PM 44.6 °F 39.2 °F 41.0 °F 87% 30.38 in 10.0 mi South 10.4 mph - N/A   Mostly Cloudy
3:17 PM 44.6 °F 38.8 °F 41.0 °F 87% 30.38 in 10.0 mi South 11.5 mph - N/A   Mostly Cloudy
3:19 PM 44.6 °F 38.8 °F 41.0 °F 87% 30.38 in 10.0 mi South 11.5 mph - N/A   Mostly Cloudy
3:20 PM 44.6 °F 38.8 °F 41.0 °F 87% 30.38 in 10.0 mi South 11.5 mph - N/A   Mostly Cloudy
3:55 PM 43.7 °F 37.7 °F 38.3 °F 81% 30.39 in 10.0 mi SSW 11.5 mph - N/A   Scattered Clouds
4:55 PM 39.0 °F 32.3 °F 36.3 °F 90% 30.39 in 10.0 mi South 10.4 mph - N/A   Clear
5:55 PM 36.7 °F 28.9 °F 36.0 °F 97% 30.40 in 10.0 mi South 11.5 mph - N/A   Clear
6:55 PM 38.7 °F 31.8 °F 36.7 °F 93% 30.38 in 10.0 mi South 10.4 mph - N/A   Clear
7:55 PM 36.0 °F 30.3 °F 35.2 °F 97% 30.39 in 10.0 mi SSE 6.9 mph - N/A   Clear
8:55 PM 34.3 °F 27.0 °F 33.8 °F 98% 30.38 in 10.0 mi South 9.2 mph - N/A   Clear
9:55 PM 34.2 °F 27.5 °F 33.6 °F 98% 30.38 in 10.0 mi SSE 8.1 mph - N/A   Clear
10:55 PM 34.0 °F 26.6 °F 33.1 °F 96% 30.38 in 10.0 mi South 9.2 mph - N/A   Clear
11:55 PM 32.5 °F - 32.0 °F 98% 30.39 in 10.0 mi Calm Calm - N/A   Clear